Tracking 19638 objects as of 20-May-2019
HD Live streaming from Space Station
objects crossing your sky now

IRAZU

Track IRAZU now!
10-day predictions
IRAZU is classified as:


NORAD ID: 43468
Int'l Code: 1998-067NR
Perigee: 371.1 km
Apogee: 374.4 km
Inclination: 51.6 °
Period: 91.9 minutes
Semi major axis: 6743 km
RCS: Unknown
Launch date: November 30, 1998
Source: COSTA RICA (CRI)
Launch site: TYURATAM MISSILE AND SPACE COMPLEX (TTMTR)

Uplink (MHz):
Downlink (MHz): 436.500
Beacon (MHz):
Mode: 9600bps FSK
Call sign: TI0IRA
Status: Active

aabbcc
Your satellite tracking list
Your tracking list is empty




NASA's NSSDC Master Catalog

Two Line Element Set (TLE):
1 43468U 98067NR  19139.38087117  .00019882  00000-0  18300-3 0  9996
2 43468  51.6351 125.6203 0002442  40.4317 319.6860 15.67655200158192
Source of the keplerian elements: AMSAT